Weather History for Guadalajara Don Miguel, Mexico

Change the Weather History Date:

Wednesday, January 2, 2013

  Actual Average Record
Temperature  
Mean Temperature 56 °F -  
Max Temperature 62 °F 74 °F 78 °F (2000)
Min Temperature 51 °F 38 °F 32 °F (1999)
Degree Days  
Heating Degree Days 8    
Growing Degree Days 6 (Base 50)    
Moisture  
Dew Point 53 °F    
Average Humidity 91    
Maximum Humidity 100    
Minimum Humidity 72    
Precipitation  
Precipitation 4.65 in - - ()
Sea Level Pressure  
Sea Level Pressure 30.07 in    
Wind  
Wind Speed 3 mph ()    
Max Wind Speed 16 mph    
Max Gust Speed -    
Visibility 4.9 miles    
Events Rain    
Averages and records for this station are not official NWS values.
T = Trace of Precipitation, MM = Missing Value Source: Averaged Metar Reports

Daily Weather History Graph

Daily Weather History Graph

Search for Another Location

Airport:

Trip Planner

Search our weather history database for the weather conditions in past years. The results will help you decide how hot, cold, wet, or windy it might be!

Date:

Astronomy

Jan. 02, 2013 Rise Set
Actual Time 7:29 AM CST 6:25 PM CST
Civil Twilight 7:05 AM CST 6:49 PM CST
Nautical Twilight 6:38 AM CST 7:16 PM CST
Astronomical Twilight 6:11 AM CST 7:43 PM CST
Moon 11:14 PM CST (1/2) 10:54 AM CST (1/2)
Length of Visible Light 11h 43m
Length of Day
10h 55m
Waning Gibbous, 75% of the Moon is Illuminated
Jan 2
Waning Gibbous
Jan 4
Last Quarter
Jan 11
New
Jan 18
First Quarter
Jan 26
Full

Hourly Weather History & Observations

Time (CST) Temp. Dew Point Humidity Pressure Visibility Wind Dir Wind Speed Gust Speed Precip Events Conditions
12:55 AM 51.8 °F 51.8 °F 100% 30.12 in 4.0 mi Calm Calm - N/A Rain Rain
1:53 AM 51.8 °F 51.8 °F 100% 30.09 in 5.0 mi Calm Calm - N/A Rain Light Rain
2:54 AM 53.6 °F 51.8 °F 94% 29.92 in 5.0 mi Calm Calm - N/A   Overcast
3:59 AM 53.6 °F 51.8 °F 94% 30.09 in 5.0 mi Calm Calm - N/A Rain Light Rain
4:56 AM 53.6 °F 51.8 °F 94% 30.07 in 5.0 mi Calm Calm - N/A Rain Light Rain
5:54 AM 53.6 °F 51.8 °F 94% 29.93 in 5.0 mi Calm Calm - N/A   Overcast
6:46 AM 53.6 °F 51.8 °F 94% 30.08 in 5.0 mi Calm Calm - N/A   Overcast
7:50 AM 53.6 °F 51.8 °F 94% 30.11 in 7.0 mi West 3.5 mph - N/A   Overcast
8:54 AM 53.6 °F 53.6 °F 100% 29.99 in 6.0 mi SW 4.6 mph - N/A   Overcast
9:48 AM 55.4 °F 53.6 °F 94% 30.15 in 2.0 mi WNW 4.6 mph - N/A   Overcast
10:46 AM 55.4 °F 53.6 °F 94% 30.15 in 7.0 mi North 5.8 mph - N/A   Overcast
11:50 AM 57.2 °F 53.6 °F 88% 29.99 in 8.0 mi North 5.8 mph - N/A   Overcast
12:51 PM 59.0 °F 53.6 °F 82% 30.12 in 8.0 mi NNE 3.5 mph - N/A   Overcast
1:51 PM 60.8 °F 53.6 °F 77% 30.11 in 8.0 mi North 3.5 mph - N/A   Overcast
2:47 PM 62.6 °F 53.6 °F 72% 29.91 in 8.0 mi North 9.2 mph - N/A   Overcast
3:50 PM 60.8 °F 55.4 °F 82% 30.09 in 3.0 mi Calm Calm - N/A Rain Overcast
4:34 PM 57.2 °F 53.6 °F 88% 30.09 in 2.0 mi North 15.0 mph - N/A Rain Overcast
4:52 PM 57.2 °F 53.6 °F 88% 30.09 in 2.0 mi North 16.1 mph - N/A Rain Overcast
5:50 PM 55.4 °F 53.6 °F 94% 29.96 in 2.0 mi North 16.1 mph - N/A Rain Overcast
6:51 PM 55.4 °F 51.8 °F 88% 30.12 in 3.0 mi ENE 3.5 mph - N/A Rain Rain
7:53 PM 53.6 °F 53.6 °F 100% 30.17 in 3.0 mi ESE 4.6 mph - N/A Rain Rain
8:53 PM 53.6 °F 51.8 °F 94% 30.05 in 4.0 mi South 4.6 mph - N/A Rain Rain
9:53 PM 53.6 °F 51.8 °F 94% 30.22 in 4.0 mi Calm Calm - N/A Rain Rain
10:48 PM 53.6 °F 51.8 °F 94% 30.21 in 4.0 mi SE 3.5 mph - N/A Rain Rain
11:50 PM 53.6 °F 51.8 °F 94% 30.02 in 7.0 mi SE 5.8 mph - N/A   Overcast